[[{"header":{"parameterUnit":"m.s-1","parameterCategory":1,"la1":30.2991,"la2":30.254,"lo1":-89.0895,"lo2":-89.0444,"dy":0.0017,"dx":0.0017,"nx":28,"ny":28,"refTime":"2025-09-01T09:00:00:Z","depth":0,"parameterNumber":2,"parameterNumberName":"U-component_of_WINDS"},"data":[0,0,0,0,0,0,0,0,0,0,0,0,0,0,0,0,0,0,0,0,0,0,0,0,0,0,0,0,0,0,0,0,0,0,0,0,0,0,0,0,0,0,0,0,0,0,0,0,0,0,0,0,0,0,0,0,0,0,-3.1741,-3.1741,0,-3.1731,-3.1731,-3.1731,-3.1643,-3.1641,-3.1639,-3.1637,-3.1629,-3.1631,-3.1632,0,0,0,0,0,0,0,0,0,0,0,0,0,-3.1688,-3.169,-3.1741,-3.1741,-3.1741,-3.1731,-3.1731,-3.1731,-3.1644,-3.1641,-3.1639,-3.1636,-3.1628,-3.163,-3.1633,0,0,0,0,0,0,0,0,0,0,0,0,0,-3.1698,-3.169,-3.1742,-3.1696,-3.1692,-3.1731,-3.1731,-3.1731,-3.1644,-3.1641,-3.1638,-3.1635,-3.1627,-3.163,-3.1633,-3.1715,0,0,-3.1641,-3.1642,0,0,0,0,0,0,0,0,-3.1698,-3.17,-3.1703,-3.17,-3.1695,-3.1685,-3.1709,-3.1726,-3.1645,-3.1663,-3.1637,-3.1633,-3.165,-3.1651,-3.1656,-3.1714,-3.1714,-3.1641,-3.1643,-3.1644,-3.1645,0,0,0,0,0,0,0,-3.1697,-3.17,-3.1737,-3.1703,-3.1698,-3.1678,-3.1676,-3.1712,-3.1675,-3.1661,-3.1655,-3.1654,-3.1648,-3.1654,-3.1655,-3.1714,-3.1641,-3.1644,-3.1645,-3.1646,-3.1842,-3.1845,0,0,0,0,0,0,-3.1702,-3.17,-3.1738,-3.1737,-3.1688,-3.1681,-3.1679,-3.1692,-3.1674,-3.1669,-3.1657,-3.165,-3.1651,-3.1652,-3.1655,-3.1752,-3.1644,-3.1647,-3.1648,-3.1838,-3.1842,-3.1846,0,0,0,0,0,0,-3.1702,-3.1707,-3.1738,-3.1717,-3.1719,-3.1686,-3.1701,-3.1693,-3.1699,-3.1672,-3.1665,-3.167,-3.1648,-3.1651,-3.1701,-3.175,-3.1648,-3.165,-3.1834,-3.1839,-3.1844,-3.1945,0,0,0,0,0,0,-3.1701,-3.1707,-3.1737,-3.1718,-3.1721,-3.1784,-3.1704,-3.1695,-3.1704,-3.1695,-3.1682,-3.1677,-3.1646,-3.1697,-3.1704,-3.1752,-3.1652,-3.1829,-3.1836,-3.1843,-3.1937,-3.1953,-3.1967,0,0,0,0,0,-3.1699,-3.1766,-3.1739,-3.1744,-3.1758,-3.1787,-3.1788,-3.1751,-3.1708,-3.1739,-3.1721,-3.1677,-3.1743,-3.1703,-3.171,-3.176,-3.1826,-3.1834,-3.1842,-3.1931,-3.195,-3.1967,0,0,0,0,0,0,-3.1791,-3.1762,-3.1732,-3.1795,-3.1794,-3.1772,-3.1809,-3.1772,-3.1784,-3.1775,-3.1729,-3.1727,-3.1785,-3.1776,-3.1732,-3.1839,-3.1777,-3.1787,-3.1843,-3.1861,-3.1875,-3.1877,-3.1655,0,0,0,0,0,-3.1819,-3.1844,-3.1818,-3.1875,-3.1876,-3.1843,-3.1855,-3.1826,-3.1823,-3.1823,-3.1809,-3.1809,-3.183,-3.1844,-3.1862,-3.1935,-3.1933,-3.1973,-3.1988,-3.2,-3.201,-3.205,-3.2069,-3.1873,-3.1873,-3.1872,0,0,-3.1876,-3.1863,-3.1882,-3.1894,-3.1889,-3.1918,-3.1844,-3.1876,-3.1898,-3.1828,-3.1875,-3.1865,-3.1862,-3.1925,-3.1951,-3.192,-3.2063,-3.201,-3.202,-3.2023,-3.2061,-3.2079,-3.2096,-3.1878,-3.1877,-3.1876,0,0,-3.1995,-3.1987,-3.2036,-3.2033,-3.2028,-3.2006,-3.2018,-3.2002,-3.1992,-3.2038,-3.1987,-3.2012,-3.2049,-3.205,-3.2055,-3.2177,-3.2137,-3.2184,-3.2262,-3.2302,-3.2317,-3.2331,-3.2377,-3.2393,-3.2193,-3.2193,-3.2193,0,-3.2067,-3.2107,-3.2065,-3.2102,-3.211,-3.2048,-3.2097,-3.2097,-3.2099,-3.2106,-3.207,-3.2116,-3.2109,-3.2173,-3.2203,-3.2208,-3.2222,-3.2185,-3.2318,-3.2332,-3.2344,-3.2387,-3.2404,-3.2199,-3.2198,-3.2198,-3.2197,0,-3.2198,-3.2226,-3.2266,-3.2269,-3.2281,-3.2324,-3.229,-3.2307,-3.2278,-3.226,-3.2309,-3.2299,-3.2315,-3.2327,-3.2299,-3.2388,-3.2368,-3.2326,-3.2263,-3.2369,-3.2409,-3.2425,-3.2207,-3.2205,-3.2203,-3.2202,0,0,-3.2375,-3.2355,-3.237,-3.2372,-3.2362,-3.2384,-3.2426,-3.244,-3.2457,-3.246,-3.2495,-3.2528,-3.249,-3.2496,-3.2467,-3.2502,-3.2603,-3.2456,-3.2455,-3.2486,-3.2703,-3.2736,-3.2756,-3.2576,-3.2579,-3.2581,-3.2704,0,-3.2491,-3.256,-3.2524,-3.2598,-3.2625,-3.2567,-3.2603,-3.2603,-3.2587,-3.2609,-3.2592,-3.2618,-3.2564,-3.2567,-3.2599,-3.2584,-3.2646,-3.2574,-3.261,-3.2612,-3.2614,-3.2776,-3.2811,-3.2927,-3.2719,-3.2721,-3.2723,0,-3.2636,-3.2646,-3.2723,-3.271,-3.2721,-3.2754,-3.2766,-3.2787,-3.2785,-3.2772,-3.278,-3.2743,-3.2784,-3.2721,-3.2778,-3.2731,-3.2743,-3.2738,-3.2741,-3.2745,-3.2675,-3.2786,-3.2962,-3.2981,-3.2747,-3.2745,-3.2743,0,-3.2761,-3.2793,-3.2844,-3.2847,-3.2832,-3.2858,-3.2853,-3.2848,-3.286,-3.2871,-3.2879,-3.2894,-3.2903,-3.2917,-3.2886,-3.2843,-3.2949,-3.2882,-3.2941,-3.2942,-3.2967,-3.2966,-3.3151,-3.2972,-3.2972,-3.2971,-3.2971,0,-3.2895,-3.2945,-3.29,-3.2931,-3.2986,-3.2945,-3.3001,-3.299,-3.2986,-3.3016,-3.2966,-3.2995,-3.2952,-3.2978,-3.2954,-3.3007,-3.301,-3.3002,-3.2996,-3.3008,-3.3009,-3.3017,-3.3009,-3.2976,-3.2975,-3.2974,-3.2973,0,-3.3044,-3.3015,-3.3067,-3.305,-3.3047,-3.3088,-3.3074,-3.3103,-3.3085,-3.3123,-3.313,-3.3101,-3.3129,-3.3099,-3.3124,-3.3108,-3.318,-3.3161,-3.3181,-3.3176,-3.3237,-3.3233,-3.3434,-3.346,-3.3263,-3.3265,-3.3267,0,-3.3133,-3.317,-3.3157,-3.3173,-3.3172,-3.3198,-3.321,-3.3172,-3.3187,-3.3189,-3.3219,-3.3242,-3.3258,-3.3305,-3.3288,-3.3307,-3.3289,-3.3359,-3.3292,-3.3304,-3.3293,-3.3292,-3.3297,-3.3373,-3.3375,-3.3377,-3.3379,0,-3.3295,-3.3279,-3.3298,-3.3313,-3.3329,-3.3339,-3.3346,-3.3362,-3.3322,-3.3342,-3.3369,-3.3382,-3.3408,-3.3433,-3.3448,-3.3444,-3.3406,-3.34,-3.3415,-3.3428,-3.3439,-3.3437,-3.322,-3.3395,-3.3394,-3.3393,-3.3392,-3.3391,-3.3418,-3.3449,-3.3445,-3.3469,-3.347,-3.3477,-3.3505,-3.349,-3.3512,-3.353,-3.3506,-3.3541,-3.354,-3.3556,-3.3557,-3.3585,-3.3556,-3.3577,-3.3582,-3.3589,-3.3599,-3.3434,-3.3587,-3.3587,-3.3586,-3.3586,-3.3585,0,-3.3579,-3.3574,-3.3596,-3.3607,-3.3626,-3.3587,-3.3593,-3.3612,-3.3643,-3.3645,-3.3663,-3.3696,-3.372,-3.3705,-3.3726,-3.3751,-3.3734,-3.3758,-3.3757,-3.3757,-3.3623,-3.3609,-3.3771,-3.3771,-3.3771,-3.3771,-3.3771,-3.3771,-3.3665,-3.3717,-3.3701,-3.3753,-3.3748,-3.3781,-3.3788,-3.3796,-3.3797,-3.3836,-3.3856,-3.3845,-3.3842,-3.3862,-3.3883,-3.3878,-3.3889,-3.392,-3.3909,-3.3784,-3.3766,-3.3749,-3.3736,-3.3922,-3.3922,-3.4042,-3.4043,-3.4044]},{"header":{"parameterUnit":"m.s-1","parameterCategory":1,"la1":30.2991,"la2":30.254,"lo1":-89.0895,"lo2":-89.0444,"dy":0.0017,"dx":0.0017,"nx":28,"ny":28,"refTime":"2025-09-01T09:00:00:Z","depth":0,"parameterNumber":3,"parameterNumberName":"V-component_of_WINDS"},"data":[0,0,0,0,0,0,0,0,0,0,0,0,0,0,0,0,0,0,0,0,0,0,0,0,0,0,0,0,0,0,0,0,0,0,0,0,0,0,0,0,0,0,0,0,0,0,0,0,0,0,0,0,0,0,0,0,0,0,-0.5574,-0.5574,0,-0.5551,-0.5551,-0.5551,-0.5518,-0.5518,-0.5517,-0.5517,-0.5495,-0.5495,-0.5495,0,0,0,0,0,0,0,0,0,0,0,0,0,-0.5591,-0.559,-0.5574,-0.5574,-0.5574,-0.5551,-0.5551,-0.5551,-0.5518,-0.5518,-0.5517,-0.5516,-0.5495,-0.5495,-0.5495,0,0,0,0,0,0,0,0,0,0,0,0,0,-0.5577,-0.559,-0.5574,-0.5555,-0.5553,-0.5552,-0.5551,-0.5551,-0.5519,-0.5518,-0.5517,-0.5516,-0.5495,-0.5495,-0.5495,-0.5511,0,0,-0.5494,-0.5494,0,0,0,0,0,0,0,0,-0.5578,-0.5577,-0.5558,-0.5556,-0.5554,-0.5537,-0.5549,-0.5538,-0.5519,-0.5532,-0.5517,-0.5516,-0.551,-0.5508,-0.5506,-0.551,-0.5509,-0.5494,-0.5494,-0.5494,-0.5494,0,0,0,0,0,0,0,-0.5579,-0.5578,-0.5565,-0.5558,-0.5555,-0.5548,-0.5545,-0.5547,-0.5526,-0.553,-0.5528,-0.5526,-0.5508,-0.5506,-0.5505,-0.5509,-0.5494,-0.5494,-0.5494,-0.5494,-0.5527,-0.5528,0,0,0,0,0,0,-0.5583,-0.5579,-0.5566,-0.5564,-0.5564,-0.5548,-0.5545,-0.5543,-0.5526,-0.5522,-0.5526,-0.5524,-0.5507,-0.5505,-0.5504,-0.5524,-0.5494,-0.5494,-0.5494,-0.5526,-0.5527,-0.5528,0,0,0,0,0,0,-0.5583,-0.5582,-0.5567,-0.5571,-0.5568,-0.5549,-0.5547,-0.5543,-0.5541,-0.5522,-0.5519,-0.5528,-0.5506,-0.5504,-0.551,-0.5523,-0.5494,-0.5494,-0.5525,-0.5527,-0.5528,-0.5563,0,0,0,0,0,0,-0.5584,-0.5582,-0.5588,-0.5571,-0.5568,-0.5573,-0.5548,-0.5543,-0.5541,-0.5538,-0.5523,-0.552,-0.5505,-0.551,-0.551,-0.5522,-0.5494,-0.5524,-0.5526,-0.5527,-0.556,-0.5565,-0.5569,0,0,0,0,0,-0.5585,-0.5599,-0.5588,-0.5587,-0.5575,-0.5573,-0.5572,-0.5554,-0.5542,-0.5548,-0.5536,-0.552,-0.5521,-0.5511,-0.551,-0.5523,-0.5523,-0.5525,-0.5527,-0.5558,-0.5564,-0.5569,0,0,0,0,0,0,-0.5618,-0.5596,-0.5585,-0.5594,-0.5586,-0.5568,-0.5575,-0.5561,-0.5556,-0.5554,-0.5533,-0.553,-0.5538,-0.5531,-0.552,-0.5538,-0.552,-0.5522,-0.5543,-0.5549,-0.5553,-0.5556,-0.5494,0,0,0,0,0,-0.5626,-0.5626,-0.5607,-0.5617,-0.5614,-0.5595,-0.5594,-0.5581,-0.5572,-0.5568,-0.5557,-0.5549,-0.5548,-0.5548,-0.5545,-0.5558,-0.5556,-0.5566,-0.5571,-0.5574,-0.5577,-0.5585,-0.559,-0.5535,-0.5535,-0.5535,0,0,-0.5643,-0.5632,-0.5633,-0.5623,-0.5616,-0.5617,-0.5592,-0.5595,-0.5596,-0.5569,-0.5574,-0.5565,-0.5555,-0.5565,-0.5569,-0.5559,-0.5591,-0.5577,-0.558,-0.5581,-0.5588,-0.5593,-0.5598,-0.5537,-0.5536,-0.5536,0,0,-0.5676,-0.5667,-0.5674,-0.5667,-0.5656,-0.5643,-0.5645,-0.563,-0.5623,-0.5627,-0.5608,-0.5609,-0.5606,-0.5601,-0.5597,-0.5628,-0.5614,-0.5628,-0.5651,-0.5659,-0.5664,-0.5668,-0.568,-0.5685,-0.563,-0.563,-0.563,0,-0.57,-0.5701,-0.568,-0.5684,-0.5681,-0.5656,-0.5665,-0.5659,-0.5647,-0.5646,-0.5635,-0.5632,-0.5623,-0.5632,-0.564,-0.5637,-0.564,-0.563,-0.5665,-0.5668,-0.5672,-0.5684,-0.5688,-0.5632,-0.5632,-0.5632,-0.5631,0,-0.5731,-0.5732,-0.5739,-0.5729,-0.5726,-0.5733,-0.5714,-0.5714,-0.5701,-0.569,-0.5696,-0.5685,-0.568,-0.5681,-0.5668,-0.5688,-0.5683,-0.5668,-0.565,-0.5679,-0.569,-0.5694,-0.5635,-0.5634,-0.5633,-0.5633,0,0,-0.5785,-0.5763,-0.5767,-0.5762,-0.5748,-0.5748,-0.5753,-0.5749,-0.575,-0.5743,-0.5748,-0.5746,-0.5733,-0.5729,-0.5716,-0.5723,-0.575,-0.5707,-0.5707,-0.5717,-0.5774,-0.5786,-0.5792,-0.574,-0.574,-0.5741,-0.5775,0,-0.5817,-0.5824,-0.5806,-0.5819,-0.582,-0.5797,-0.5801,-0.5793,-0.5783,-0.5783,-0.5772,-0.5772,-0.5753,-0.5751,-0.5757,-0.5746,-0.5761,-0.5742,-0.5746,-0.5746,-0.5751,-0.5797,-0.581,-0.5843,-0.5779,-0.578,-0.578,0,-0.5855,-0.585,-0.5862,-0.5848,-0.5848,-0.5852,-0.5847,-0.5847,-0.5838,-0.583,-0.5826,-0.581,-0.5815,-0.5796,-0.5803,-0.5791,-0.579,-0.5785,-0.5786,-0.5787,-0.5766,-0.5802,-0.5853,-0.5859,-0.5786,-0.5786,-0.5785,0,-0.5896,-0.5892,-0.5899,-0.5896,-0.5879,-0.5883,-0.5876,-0.5866,-0.5864,-0.586,-0.5859,-0.5855,-0.5853,-0.5851,-0.5835,-0.5822,-0.5845,-0.5823,-0.584,-0.584,-0.5847,-0.5848,-0.5901,-0.5844,-0.5844,-0.5844,-0.5843,0,-0.5934,-0.5943,-0.5918,-0.5923,-0.5932,-0.5911,-0.5922,-0.5913,-0.5904,-0.5907,-0.5886,-0.5889,-0.5867,-0.5868,-0.5855,-0.5865,-0.5863,-0.5858,-0.5855,-0.5861,-0.5862,-0.5863,-0.5861,-0.5845,-0.5845,-0.5844,-0.5844,0,-0.5983,-0.5965,-0.5972,-0.5955,-0.5951,-0.596,-0.5946,-0.595,-0.5938,-0.5942,-0.5942,-0.5924,-0.5924,-0.5907,-0.5904,-0.5896,-0.5911,-0.5903,-0.5915,-0.5913,-0.5931,-0.5931,-0.5989,-0.5996,-0.5932,-0.5933,-0.5933,0,-0.6009,-0.6016,-0.6,-0.6,-0.5995,-0.5995,-0.5994,-0.5974,-0.5973,-0.5963,-0.5969,-0.5968,-0.5966,-0.5968,-0.5955,-0.5953,-0.5946,-0.5966,-0.5945,-0.5952,-0.5949,-0.5949,-0.5951,-0.5971,-0.5972,-0.5973,-0.5973,0,-0.6059,-0.6051,-0.6049,-0.6045,-0.6044,-0.604,-0.6034,-0.6036,-0.6014,-0.6014,-0.6015,-0.6013,-0.601,-0.601,-0.6005,-0.5999,-0.5983,-0.598,-0.5984,-0.5991,-0.5999,-0.5997,-0.5929,-0.5979,-0.5978,-0.5978,-0.5978,-0.5977,-0.6099,-0.6105,-0.6094,-0.6094,-0.6087,-0.6083,-0.6086,-0.6075,-0.6074,-0.6071,-0.6058,-0.6061,-0.6052,-0.6044,-0.6039,-0.6042,-0.6032,-0.6037,-0.6039,-0.6041,-0.6046,-0.5997,-0.604,-0.604,-0.604,-0.604,-0.604,0,-0.615,-0.6142,-0.6142,-0.6135,-0.6135,-0.6118,-0.6112,-0.6113,-0.6116,-0.6108,-0.6107,-0.6108,-0.6107,-0.6094,-0.6092,-0.6097,-0.609,-0.6097,-0.6098,-0.6097,-0.6054,-0.6051,-0.6103,-0.6103,-0.6103,-0.6103,-0.6103,-0.6103,-0.6177,-0.6186,-0.6176,-0.6181,-0.6173,-0.6176,-0.6173,-0.617,-0.6164,-0.6166,-0.6165,-0.6156,-0.6147,-0.6144,-0.6143,-0.6139,-0.6141,-0.6151,-0.6145,-0.6106,-0.61,-0.6094,-0.6092,-0.6151,-0.6151,-0.6189,-0.6189,-0.6189]}]]